FW5436 Weather Reports


Display with metric or nautical units.
time (UTC)temp
F
wind
direction
speed
MPH
gust
MPH
rain 1hr
in
rain 24hr
in
rain mn
in
humidity
%
barometer
mb
20260503222541 55 203 2.0 7.0 0.00 0.00 0.00 69 1014.9
20260503222030 55 203 4.0 7.0 0.00 0.00 0.00 69 1014.9
20260503221520 55 45 2.0 7.0 0.00 0.00 0.00 69 1014.9
20260503221010 55 90 2.0 7.0 0.00 0.00 0.00 69 1014.7
20260503220459 55 68 2.0 6.0 0.00 0.00 0.00 69 1014.9
20260503215443 55 270 2.0 6.0 0.00 0.00 0.00 69 1015.0
20260503214929 55 68 2.0 7.0 0.00 0.00 0.00 69 1015.0
20260503214420 55 45 2.0 7.0 0.00 0.00 0.00 69 1015.1
20260503213359 55 270 2.0 8.0 0.00 0.00 0.00 69 1014.9
20260503212850 55 45 3.0 8.0 0.00 0.00 0.00 70 1015.2
20260503212339 55 113 2.0 7.0 0.00 0.00 0.00 70 1015.3
20260503211830 55 45 3.0 7.0 0.00 0.00 0.00 70 1015.3
20260503211319 55 68 2.0 6.0 0.00 0.00 0.00 70 1015.3
20260503210808 55 203 2.0 6.0 0.00 0.00 0.00 70 1015.3
20260503210259 56 135 2.0 6.0 0.00 0.00 0.00 70 1015.3
20260503205748 56 113 3.0 6.0 0.00 0.00 0.00 71 1015.2
20260503204728 56 45 1.0 7.0 0.00 0.00 0.00 71 1015.3
20260503204217 56 0 1.0 7.0 0.00 0.00 0.00 71 1015.3
20260503203708 57 248 3.0 9.0 0.00 0.00 0.00 70 1015.2
20260503203156 57 68 2.0 9.0 0.00 0.00 0.00 68 1015.3
20260503202647 57 45 2.0 6.0 0.00 0.00 0.00 67 1015.1
20260503201627 57 68 2.0 8.0 0.00 0.00 0.00 67 1015.6
20260503201117 57 68 2.0 8.0 0.00 0.00 0.00 67 1015.6
20260503200607 57 45 4.0 7.0 0.00 0.00 0.00 67 1015.9
20260503195546 59 180 3.0 9.0 0.00 0.00 0.00 63 1015.9
20260503195036 59 45 2.0 9.0 0.00 0.00 0.00 61 1016.1
20260503194526 59 45 4.0 9.0 0.00 0.00 0.00 60 1016.1
20260503194016 59 45 2.0 8.0 0.00 0.00 0.00 60 1016.2
20260503192445 60 113 4.0 11.0 0.00 0.00 0.00 57 1016.0
20260503191935 60 23 4.0 11.0 0.00 0.00 0.00 56 1016.1
20260503191426 60 248 4.0 11.0 0.00 0.00 0.00 55 1016.3
20260503190406 60 203 3.0 9.0 0.00 0.00 0.00 55 1016.5
20260503185854 61 45 3.0 11.0 0.00 0.00 0.00 55 1016.8
20260503184324 60 90 4.0 9.0 0.00 0.00 0.00 55 1016.7
20260503183813 61 45 3.0 9.0 0.00 0.00 0.00 54 1016.8
20260503183304 61 68 4.0 9.0 0.00 0.00 0.00 54 1016.7
20260503182753 61 68 3.0 9.0 0.00 0.00 0.00 52 1016.8
20260503182244 61 315 2.0 9.0 0.00 0.00 0.00 52 1016.9
20260503181734 61 23 3.0 8.0 0.00 0.00 0.00 51 1017.1
20260503181226 61 135 4.0 8.0 0.00 0.00 0.00 52 1017.0
20260503175851 61 90 2.0 11.0 0.00 0.00 0.00 52 1017.2
20260503174830 61 68 7.0 13.0 0.00 0.00 0.00 52 1017.4
20260503173809 61 45 3.0 11.0 0.00 0.00 0.00 51 1017.6
20260503173259 61 90 3.0 11.0 0.00 0.00 0.00 52 1017.7
20260503172751 61 45 2.0 9.0 0.00 0.00 0.00 52 1018.0
20260503172239 62 68 3.0 8.0 0.00 0.00 0.00 51 1018.0
20260503171728 61 68 3.0 8.0 0.00 0.00 0.00 51 1018.1
20260503171219 61 68 4.0 8.0 0.00 0.00 0.00 51 1017.9
20260503170709 61 45 5.0 8.0 0.00 0.00 0.00 51 1018.0
20260503170159 61 23 3.0 11.0 0.00 0.00 0.00 51 1018.2
20260503150816 58 0 2.0 9.0 0.00 0.00 0.00 53 1020.7
20260503140104 55 113 4.0 11.0 0.00 0.00 0.00 60 1021.9
20260503130922 51 45 1.0 4.0 0.00 0.00 0.00 73 1021.8
20260503130412 50 45 2.0 4.0 0.00 0.00 0.00 73 1021.9
20260503120211 43 68 2.0 2.0 0.00 0.00 0.00 85 1022.6
20260503110519 39 68 0.0 2.0 0.00 0.00 0.00 93 1022.2
20260503081444 39 45 2.0 4.0 0.00 0.00 0.00 93 1022.6
20260503080934 39 90 1.0 4.0 0.00 0.00 0.00 93 1022.5
20260503080423 39 68 2.0 2.0 0.00 0.00 0.00 93 1022.4
20260503072812 40 68 1.0 2.0 0.00 0.00 0.00 92 1022.6
20260503072305 40 45 0.0 2.0 0.00 0.00 0.00 92 1022.6
20260503071752 40 45 2.0 4.0 0.00 0.00 0.00 92 1022.4
20260503071242 40 68 1.0 4.0 0.00 0.00 0.00 92 1022.6
20260503070732 40 45 2.0 2.0 0.00 0.00 0.00 91 1022.7
20260503070221 40 23 1.0 2.0 0.00 0.00 0.00 91 1022.7
20260503055000 42 68 1.0 2.0 0.00 0.00 0.00 90 1023.3
20260503053940 42 68 1.0 2.0 0.00 0.00 0.00 89 1023.4
20260503053429 42 45 0.0 0.0 0.00 0.00 0.00 89 1023.3
20260503052557 42 45 0.0 2.0 0.00 0.00 0.00 88 1023.3
20260503052043 43 68 1.0 2.0 0.00 0.00 0.00 88 1023.5
20260503051533 43 68 1.0 2.0 0.00 0.00 0.00 88 1023.6
20260503051022 43 45 0.0 2.0 0.00 0.00 0.00 87 1023.5
20260503050512 43 23 1.0 2.0 0.00 0.00 0.00 87 1023.7
20260503050002 44 90 0.0 2.0 0.00 0.00 0.00 86 1023.4
20260503045452 44 68 0.0 2.0 0.00 0.00 0.00 86 1023.6
20260503044941 44 45 2.0 2.0 0.00 0.00 0.00 85 1023.6
20260503044432 44 68 1.0 4.0 0.00 0.00 0.00 85 1023.4
20260503043921 45 68 1.0 4.0 0.00 0.00 0.00 85 1023.6
20260503042901 45 113 0.0 4.0 0.00 0.00 0.00 86 1023.3
20260503042351 44 68 1.0 4.0 0.00 0.00 0.00 86 1023.6
20260503041841 44 23 0.0 4.0 0.00 0.00 0.00 87 1023.6
20260503041330 44 23 1.0 2.0 0.00 0.00 0.00 87 1023.5
20260503040820 44 68 1.0 2.0 0.00 0.00 0.00 87 1023.6
20260503040311 44 68 0.0 2.0 0.00 0.00 0.00 87 1023.8
20260503035800 43 90 1.0 2.0 0.00 0.00 0.00 86 1023.8
20260503035250 43 113 1.0 2.0 0.00 0.00 0.00 86 1024.1
20260503034740 44 68 1.0 2.0 0.00 0.00 0.00 86 1024.0
20260503034230 44 45 1.0 2.0 0.00 0.00 0.00 86 1023.9
20260503033720 44 113 1.0 2.0 0.00 0.00 0.00 86 1024.0
20260503032149 43 68 1.0 2.0 0.00 0.00 0.00 85 1024.0
20260503031129 43 0 0.0 2.0 0.00 0.00 0.00 84 1023.9
20260503030619 43 45 1.0 2.0 0.00 0.00 0.00 84 1024.1
20260503030109 43 45 1.0 2.0 0.00 0.00 0.00 84 1024.0
20260503025559 43 45 1.0 2.0 0.00 0.00 0.00 83 1024.1
20260503025049 43 45 2.0 2.0 0.00 0.00 0.00 83 1024.3
20260503024028 43 90 1.0 2.0 0.00 0.00 0.00 82 1024.2
20260503023517 44 338 0.0 2.0 0.00 0.00 0.00 81 1024.1
20260503022457 44 68 1.0 4.0 0.00 0.00 0.00 80 1024.2
20260503021947 44 45 1.0 4.0 0.00 0.00 0.00 80 1024.4
20260503021437 44 68 1.0 2.0 0.00 0.00 0.00 80 1024.3
20260503020927 44 68 1.0 2.0 0.00 0.00 0.00 80 1024.1
20260503020417 44 68 1.0 2.0 0.00 0.00 0.00 80 1024.1
20260503015906 44 23 1.0 4.0 0.00 0.00 0.00 80 1023.9
20260503015357 44 68 1.0 4.0 0.00 0.00 0.00 80 1024.2
20260503014846 44 45 1.0 4.0 0.00 0.00 0.00 80 1024.1
20260503014342 44 68 2.0 4.0 0.00 0.00 0.00 80 1024.2
20260503012810 45 45 2.0 4.0 0.00 0.00 0.00 80 1024.2
20260503012300 45 0 2.0 4.0 0.00 0.00 0.00 80 1024.0
20260503011749 45 45 2.0 4.0 0.00 0.00 0.00 80 1024.2
20260503011240 45 45 0.0 4.0 0.00 0.00 0.00 79 1024.1
20260503010219 45 45 2.0 4.0 0.00 0.00 0.00 77 1024.0
20260503004649 46 45 2.0 4.0 0.00 0.00 0.00 76 1023.9
20260503004139 46 68 2.0 6.0 0.00 0.00 0.00 76 1023.6
20260503003628 46 45 2.0 6.0 0.00 0.00 0.00 75 1023.6
20260503002609 46 68 2.0 4.0 0.00 0.00 0.00 74 1023.8
20260503002058 46 45 1.0 4.0 0.00 0.00 0.00 74 1023.5
20260503001549 46 45 1.0 2.0 0.00 0.00 0.00 73 1023.5
20260503001038 46 68 1.0 4.0 0.00 0.00 0.00 72 1023.7
20260503000528 47 68 2.0 4.0 0.00 0.00 0.00 70 1023.5
20260503000018 47 23 1.0 2.0 0.00 0.00 0.00 69 1023.6
20260502235512 47 0 1.0 2.0 0.00 0.00 0.00 69 1023.4
20260502234957 47 0 1.0 2.0 0.00 0.00 0.00 69 1023.3
20260502234446 47 45 1.0 2.0 0.00 0.00 0.00 70 1023.5
20260502233937 47 68 1.0 2.0 0.00 0.00 0.00 69 1023.5
20260502233429 48 45 2.0 4.0 0.00 0.00 0.00 67 1023.3
20260502232918 49 68 2.0 4.0 0.00 0.00 0.00 64 1023.4
20260502232407 50 45 1.0 4.0 0.00 0.00 0.00 62 1023.5
20260502231856 50 315 1.0 4.0 0.00 0.00 0.00 62 1023.4
20260502230836 50 68 1.0 4.0 0.00 0.00 0.00 61 1023.2
20260502230331 50 68 1.0 4.0 0.00 0.00 0.00 61 1023.2
20260502225816 51 23 1.0 4.0 0.00 0.00 0.00 60 1023.2
20260502225307 51 270 2.0 4.0 0.00 0.00 0.00 60 1023.3
20260502224756 51 68 2.0 4.0 0.00 0.00 0.00 59 1023.1
20260502224246 51 338 1.0 4.0 0.00 0.00 0.00 59 1023.3
20260502223735 51 338 2.0 4.0 0.00 0.00 0.00 58 1023.2